TimeEST,TemperatureF,Dew PointF,Humidity,Sea Level PressureIn,VisibilityMPH,Wind Direction,Wind SpeedMPH,Gust SpeedMPH,PrecipitationIn,Events,Conditions,WindDirDegrees,DateUTC
12:15 AM,43.9,35.6,73,30.37,10.0,East,9.2,-,N/A,,Clear,80,2012-11-19 05:15:00
12:35 AM,43.5,35.4,73,30.37,10.0,East,10.4,-,N/A,,Clear,90,2012-11-19 05:35:00
12:55 AM,43.7,35.2,72,30.36,10.0,ENE,10.4,-,N/A,,Clear,70,2012-11-19 05:55:00
1:15 AM,43.5,35.6,74,30.35,10.0,East,10.4,-,N/A,,Clear,80,2012-11-19 06:15:00
1:35 AM,42.8,35.1,74,30.36,10.0,ENE,9.2,-,N/A,,Clear,70,2012-11-19 06:35:00
1:55 AM,42.8,34.9,74,30.36,10.0,East,10.4,-,N/A,,Clear,80,2012-11-19 06:55:00
2:15 AM,42.8,35.1,74,30.36,10.0,East,8.1,-,N/A,,Clear,80,2012-11-19 07:15:00
2:35 AM,42.4,35.6,77,30.36,10.0,East,9.2,-,N/A,,Clear,80,2012-11-19 07:35:00
2:55 AM,42.3,36.1,79,30.36,10.0,East,8.1,-,N/A,,Clear,80,2012-11-19 07:55:00
3:15 AM,42.1,36.5,81,30.35,10.0,East,9.2,-,N/A,,Clear,90,2012-11-19 08:15:00
3:35 AM,42.1,37.0,82,30.35,10.0,East,8.1,-,N/A,,Clear,80,2012-11-19 08:35:00
3:55 AM,41.5,36.9,83,30.35,10.0,East,6.9,-,N/A,,Clear,80,2012-11-19 08:55:00
4:15 AM,41.5,37.4,85,30.34,10.0,ENE,6.9,-,N/A,,Clear,70,2012-11-19 09:15:00
5:15 AM,42.1,39.2,90,30.35,10.0,East,9.2,-,N/A,,Clear,80,2012-11-19 10:15:00
5:55 AM,42.1,40.1,93,30.35,10.0,East,6.9,-,N/A,,Clear,80,2012-11-19 10:55:00
6:15 AM,42.4,40.3,92,30.35,10.0,ENE,4.6,-,N/A,,Scattered Clouds,70,2012-11-19 11:15:00
6:35 AM,42.3,40.3,93,30.35,10.0,East,5.8,-,N/A,,Mostly Cloudy,80,2012-11-19 11:35:00
6:55 AM,42.3,40.3,93,30.35,10.0,East,6.9,-,N/A,,Overcast,80,2012-11-19 11:55:00
7:15 AM,42.4,40.1,91,30.34,10.0,East,5.8,-,N/A,,Overcast,90,2012-11-19 12:15:00
7:35 AM,41.9,40.1,93,30.34,10.0,East,8.1,-,N/A,,Scattered Clouds,90,2012-11-19 12:35:00
7:55 AM,42.8,41.0,93,30.34,10.0,East,6.9,-,N/A,,Clear,90,2012-11-19 12:55:00
8:15 AM,44.6,41.9,90,30.34,10.0,East,9.2,-,N/A,,Clear,90,2012-11-19 13:15:00
8:35 AM,45.9,42.8,89,30.34,10.0,East,10.4,-,N/A,,Clear,90,2012-11-19 13:35:00
8:55 AM,46.9,43.2,87,30.34,10.0,East,13.8,-,N/A,,Clear,90,2012-11-19 13:55:00
9:15 AM,48.0,43.7,85,30.35,10.0,East,9.2,-,N/A,,Clear,90,2012-11-19 14:15:00
9:35 AM,48.7,44.2,84,30.34,10.0,East,11.5,-,N/A,,Clear,100,2012-11-19 14:35:00
9:55 AM,50.0,44.4,81,30.34,10.0,East,9.2,-,N/A,,Clear,80,2012-11-19 14:55:00
10:15 AM,51.1,44.8,79,30.34,10.0,East,8.1,-,N/A,,Clear,90,2012-11-19 15:15:00
10:35 AM,52.3,45.1,76,30.34,10.0,ESE,9.2,-,N/A,,Clear,120,2012-11-19 15:35:00
10:55 AM,52.9,45.5,76,30.33,10.0,ESE,8.1,-,N/A,,Clear,110,2012-11-19 15:55:00
11:15 AM,54.5,46.0,73,30.32,10.0,East,5.8,-,N/A,,Clear,100,2012-11-19 16:15:00
11:35 AM,56.1,46.9,71,30.31,10.0,SE,6.9,-,N/A,,Clear,140,2012-11-19 16:35:00
11:55 AM,57.4,47.5,70,30.30,10.0,SE,3.5,-,N/A,,Clear,140,2012-11-19 16:55:00
12:15 PM,57.4,47.5,70,30.30,10.0,Calm,Calm,-,N/A,,Clear,0,2012-11-19 17:15:00
12:35 PM,58.5,48.0,68,30.28,10.0,SSW,4.6,-,N/A,,Clear,210,2012-11-19 17:35:00
12:55 PM,60.1,48.4,65,30.27,10.0,SSE,4.6,-,N/A,,Clear,150,2012-11-19 17:55:00
1:15 PM,61.0,47.8,62,30.26,10.0,SW,5.8,-,N/A,,Clear,220,2012-11-19 18:15:00
1:35 PM,60.8,47.1,61,30.25,10.0,Calm,Calm,-,N/A,,Clear,0,2012-11-19 18:35:00
1:55 PM,61.2,46.0,58,30.24,10.0,Calm,Calm,-,N/A,,Clear,0,2012-11-19 18:55:00
2:15 PM,62.1,47.1,58,30.23,10.0,Calm,Calm,-,N/A,,Clear,0,2012-11-19 19:15:00
2:35 PM,62.6,46.4,55,30.23,10.0,SW,3.5,-,N/A,,Clear,230,2012-11-19 19:35:00
2:55 PM,62.6,47.1,57,30.23,10.0,West,6.9,-,N/A,,Clear,270,2012-11-19 19:55:00
3:15 PM,62.6,46.4,55,30.23,10.0,NNW,5.8,-,N/A,,Clear,330,2012-11-19 20:15:00
3:35 PM,62.1,46.6,57,30.23,10.0,WSW,4.6,-,N/A,,Clear,250,2012-11-19 20:35:00
3:55 PM,61.5,46.2,57,30.23,10.0,West,5.8,-,N/A,,Clear,280,2012-11-19 20:55:00
4:15 PM,60.8,46.2,59,30.23,10.0,SW,5.8,-,N/A,,Clear,230,2012-11-19 21:15:00
4:35 PM,59.4,45.7,61,30.23,10.0,WSW,4.6,-,N/A,,Clear,250,2012-11-19 21:35:00
4:55 PM,58.8,46.2,63,30.23,10.0,WSW,3.5,-,N/A,,Clear,250,2012-11-19 21:55:00
5:15 PM,57.6,45.7,65,30.22,10.0,Calm,Calm,-,N/A,,Clear,0,2012-11-19 22:15:00
5:35 PM,55.4,45.1,68,30.22,10.0,Calm,Calm,-,N/A,,Clear,0,2012-11-19 22:35:00
5:55 PM,53.8,44.8,72,30.22,10.0,Calm,Calm,-,N/A,,Clear,0,2012-11-19 22:55:00
6:15 PM,52.7,44.6,74,30.22,10.0,Calm,Calm,-,N/A,,Clear,0,2012-11-19 23:15:00
6:35 PM,50.0,44.2,81,30.22,10.0,Calm,Calm,-,N/A,,Clear,0,2012-11-19 23:35:00
6:55 PM,48.7,43.7,83,30.22,10.0,Calm,Calm,-,N/A,,Clear,0,2012-11-19 23:55:00
7:15 PM,48.7,43.9,83,30.22,10.0,Calm,Calm,-,N/A,,Clear,0,2012-11-20 00:15:00
7:35 PM,46.8,43.0,87,30.22,10.0,Calm,Calm,-,N/A,,Clear,0,2012-11-20 00:35:00
7:55 PM,47.1,43.2,86,30.22,10.0,Calm,Calm,-,N/A,,Clear,0,2012-11-20 00:55:00
8:15 PM,46.0,42.8,88,30.22,10.0,Calm,Calm,-,N/A,,Clear,0,2012-11-20 01:15:00
8:35 PM,46.6,42.6,86,30.21,10.0,Calm,Calm,-,N/A,,Clear,0,2012-11-20 01:35:00
8:55 PM,47.1,43.9,88,30.22,10.0,Calm,Calm,-,N/A,,Clear,0,2012-11-20 01:55:00
9:15 PM,46.6,43.9,90,30.21,10.0,Calm,Calm,-,N/A,,Clear,0,2012-11-20 02:15:00
9:35 PM,43.9,42.1,93,30.20,10.0,Calm,Calm,-,N/A,,Clear,0,2012-11-20 02:35:00
9:55 PM,45.1,42.8,91,30.20,10.0,Calm,Calm,-,N/A,,Clear,0,2012-11-20 02:55:00
10:15 PM,43.9,42.1,93,30.20,10.0,Calm,Calm,-,N/A,,Clear,0,2012-11-20 03:15:00
10:35 PM,44.1,42.4,94,30.20,10.0,Calm,Calm,-,N/A,,Clear,0,2012-11-20 03:35:00
10:55 PM,43.0,42.3,97,30.20,10.0,SE,3.5,-,N/A,,Clear,130,2012-11-20 03:55:00
11:15 PM,42.3,41.4,97,30.20,10.0,Calm,Calm,-,N/A,,Clear,0,2012-11-20 04:15:00
11:35 PM,44.1,43.0,96,30.20,10.0,East,3.5,-,N/A,,Clear,90,2012-11-20 04:35:00
11:55 PM,44.1,42.4,94,30.19,10.0,Calm,Calm,-,N/A,,Clear,0,2012-11-20 04:55:00